Regional Weather Roundup
Issued by NWS

Home | Current Version | Previous Version | Graphics & Text | Print | Product List | Glossary On
Versions: 1 2 3 4 5 6 7 8 9 10 11 12 13 14 15 16 17 18 19 20 21 22 23 24 25 26 27 28 29 30 31 32 33 34 35 36 37 38 39 40 41 42 43 44 45 46 47 48 49 50
244
ASUS43 KDTX 220910
RWRMI
MICHIGAN HOURLY REGIONAL WEATHER ROUNDUP
NATIONAL WEATHER SERVICE DETROIT/PONTIAC MI
ISSUED BY NATIONAL WEATHER SERVICE GRAND RAPIDS MI
500 AM EDT TUE AUG 22 2017

NOTE: "FAIR" INDICATES FEW OR NO CLOUDS BELOW 12,000 FEET WITH NO
SIGNIFICANT WEATHER AND/OR OBSTRUCTION TO VISIBILITY.

MIZ047>049-052>055-059>063-066>070-074>076-081>083-221000-
SOUTHEAST LOWER MICHIGAN

CITY           SKY/WX    TMP DP  RH WIND       PRES   REMARKS
ADRIAN         CLOUDY    72  68  87 W9        29.90F
ALMA           CLOUDY    72  68  89 SW12G17   29.79F
ANN ARBOR      CLOUDY    73  70  90 S9        29.86F
BAD AXE        MOCLDY    71  64  78 S7        29.80F
DETROIT CITY   PTCLDY    76  70  82 SW13G21   29.85F
DETROIT        CLOUDY    74  70  87 SW14      29.86F
FLINT          CLOUDY    73  68  84 SW13      29.81F
GROSSE ILE     PTCLDY    75  69  80 SW10      29.86F
HILLSDALE      LGT RAIN  70  66  88 SW8       29.90F
HOWELL         CLOUDY    72  68  89 S9        29.84F

CITY           SKY/WX    TMP DP  RH WIND       PRES   REMARKS
JACKSON        CLOUDY    72  67  84 S22G29    29.86F
LANSING        CLOUDY    73  68  84 SW12      29.84F
MASON          CLOUDY    73  69  86 SW9       29.85S
MONROE         CLOUDY    75  68  80 SW7       29.87F
MT. CLEMENS    CLOUDY    77  70  79 SW13      29.82F
PONTIAC        CLOUDY    74  69  85 SW10      29.83F
PORT HOPE        N/A     73  64  73 SW7       29.76F
PORT HURON     MOCLDY    75  70  83 S8        29.83F
TRI CITIES     CLOUDY    75  71  87 SW12      29.78F
YPSILANTI      MOCLDY    75  71  87 SW12      29.87F
$$
MIZ043>046-050>051-056>058-064>065-071>073-077>080-221000-
SOUTHWEST LOWER MICHIGAN

CITY           SKY/WX    TMP DP  RH WIND       PRES   REMARKS
BATTLE CREEK   MOCLDY    72  69  90 SW16      29.87R
BENTON HARBOR  CLOUDY    72  68  87 SW9       29.86R
BIG RAPIDS     HVY RAIN  70  67  91 SW10G21   29.76F
COLDWATER      RAIN      71  70  98 SW13G21   29.89F
HOLLAND        CLOUDY    73  69  87 SW20G26   29.82F
GRAND RAPIDS   CLOUDY    72  69  90 SW15      29.82S
KALAMAZOO      MOCLDY    72  66  81 SW14      29.87S
MARSHALL       CLOUDY    72  69  92 SW12G17   29.86F
MOUNT PLEASANT MOCLDY    74  68  80 SW8       29.76F
MUSKEGON       CLOUDY    74  69  85 SW23      29.79F
STURGIS        LGT RAIN  69  68  96 SW14G22   29.89F
$$
MIZ016>042-221000-
NORTHERN LOWER MICHIGAN

CITY           SKY/WX    TMP DP  RH WIND       PRES   REMARKS
ALPENA         CLOUDY    72  70  93 S7        29.71F
BEAVER ISLAND  CLOUDY    69  68  98 SW8       29.67F FOG
BELLAIRE       CLOUDY    70  68  92 CALM      29.71F
CADILLAC       CLOUDY    72  68  89 W8G18     29.75F
CHARLEVOIX     CLOUDY    69  69 100 SW7       29.72F
GAYLORD        LGT RAIN  68  66  93 W12       29.73F
HOUGHTON LAKE  CLOUDY    70  68  93 SW7       29.76F
MANISTEE       CLOUDY    70  69  97 W10       29.72F
OSCODA         MOCLDY    72  65  79 SW9       29.74F
PELLSTON       LGT RAIN  70  68  93 W14G20    29.69F
TRAVERSE CITY  CLOUDY    72  68  87 SW5       29.70F
LUDINGTON      CLOUDY    70  68  94 W8        29.74F
$$
MIZ007>008-015-221000-
EASTERN UPPER MICHIGAN

CITY           SKY/WX    TMP DP  RH WIND       PRES   REMARKS
KINROSS        CLOUDY    68  68 100 SW3       29.65F
MACKINAC ISLAN CLOUDY    70  70 100 SW13G22   29.67F
NEWBERRY       LGT RAIN  66  65  97 SW10      29.64F
S. S. MARIE    CLOUDY    69  68  96 S7        29.64F FOG
$$
MIZ004>006-011>014-085-221000-
CENTRAL UPPER MICHIGAN

CITY           SKY/WX    TMP DP  RH WIND       PRES   REMARKS
MANISTIQUE     CLOUDY    67  61  81 CALM      29.65F
ESCANABA       CLOUDY    67  66  97 W5        29.66F
MENOMINEE      CLOUDY    68  64  87 VRB6      29.70F
SAWYER-GWINN   LGT RAIN  64  64  97 W6        29.69S
$$
MIZ001>003-009>011-084-221000-
WESTERN UPPER MICHIGAN

CITY           SKY/WX    TMP DP  RH WIND       PRES   REMARKS
IRON MOUNTAIN  MOCLDY    66  61  84 W9        29.69F
HOUGHTON       CLOUDY    56  53  90 NW7       29.74S
COPPER HARBOR    N/A     58  56  93 N12       29.72R
IRONWOOD       CLOUDY    56  55  97 NW7       29.82S
$$

ABBREVIATIONS USED IN REMARKS
   TC - TEMPERATURE IN CELSIUS
  WCI - WIND CHILL INDEX
   HX - HEAT INDEX
  VSB - VISIBILITY





USA.gov is the U.S. government's official web portal to all federal, state and local government web resources and services.